Home > Weather > Mostar > Past weeks

Flag for Bosnia-Herzegovina Weather for the Past 2 Weeks in Mostar, Bosnia-Herzegovina

Now
48 °F

Scattered clouds.


Feels Like: 48 °F
Forecast: 43 / 53 °F
Wind: 2 mph from North

Location: Mostar

Current Time: Feb 12, 2016 at 11:24:21 AM

Latest Report: Feb 12, 2016 at 11:00 AM


Visibility: N/A

Pressure: 29.83 "Hg

Humidity: 62%

Dew point: 36 °F

Location of MostarLocation

Historic Weather in Mostar — Graph

°F

Mostar Temperature Yesterday

Maximum temperature yesterday: 46 °F (at 3:00 PM)
Minimum temperature yesterday: 32 °F (at 5:00 AM)
Average temperature yesterday: 39 °F

High & Low Weather Summary for the Past Weeks

 TemperatureHumidityPressure
High64 °F (Feb 1, 2:00 PM)100% (Jan 28, 11:00 AM)30.48 "Hg (Jan 28, 11:00 AM)
Low25 °F (Feb 6, 5:00 AM)29% (Feb 4, 11:00 PM)29.39 "Hg (Feb 10, 8:30 AM)
Average47 °F77%30.11 "Hg
* Reported Jan 28 10:00 AM — Feb 12 10:00 AM, Mostar, Weather by CustomWeather, © 2016

Note: Actual official high and low records may vary slightly from our data, if they occured in-between our weather recording intervals... More about our weather records

Advertising

Mostar Weather History for the Previous 24 Hours

 ConditionsComfort  
Time TempWeatherWind HumidityBarometerVisibility
10:00 AM
Fri, Feb 12
46 °FScattered clouds.3 mph71%29.83 "HgN/A
9:30 AM45 °FPassing clouds.5 mph76%29.83 "HgN/A
9:00 AM43 °FScattered clouds.2 mph81%29.86 "HgN/A
8:30 AM39 °FScattered clouds.2 mph93%29.86 "HgN/A
8:00 AM39 °FScattered clouds.1 mph93%29.86 "HgN/A
7:30 AM34 °FScattered clouds.3 mph100%29.86 "HgN/A
7:00 AM34 °FScattered clouds.5 mph93%29.86 "HgN/A
6:30 AM34 °FPassing clouds.2 mph93%29.86 "HgN/A
5:00 AM37 °FPassing clouds.3 mph93%29.86 "HgN/A
4:00 AM37 °FPassing clouds.3 mph93%29.86 "HgN/A
3:00 AM39 °FPassing clouds.2 mph87%29.86 "HgN/A
2:00 AM39 °FPassing clouds.2 mph87%29.86 "HgN/A
1:00 AM37 °FPassing clouds.5 mph93%29.83 "HgN/A
12:00 AM39 °FPassing clouds.2 mph87%29.83 "HgN/A
10:00 PM
Thu, Feb 11
43 °FPassing clouds.6 mph81%29.80 "HgN/A
9:00 PM43 °FPassing clouds.5 mph81%29.83 "HgN/A
8:00 PM43 °FMostly cloudy.5 mph81%29.80 "HgN/A
7:00 PM43 °FPartly cloudy.2 mph81%29.77 "HgN/A
6:00 PM45 °FPartly cloudy.3 mph76%29.77 "HgN/A
5:00 PM46 °FBroken clouds.2 mph66%29.74 "HgN/A
4:00 PM46 °FMostly cloudy.2 mph66%29.77 "HgN/A
3:00 PM46 °FBroken clouds.2 mph66%29.74 "HgN/A
2:00 PM45 °FLight rain. More clouds than sun.6 mph76%29.77 "HgN/A
1:00 PM45 °FBroken clouds.3 mph71%29.77 "HgN/A
12:00 PM41 °FBroken clouds.2 mph81%29.80 "HgN/A
11:30 AM41 °FBroken clouds.5 mph87%29.80 "HgN/A
11:00 AM41 °FBroken clouds.2 mph87%29.80 "HgN/A
Weather by CustomWeather, © 2016

See weather overviewHow to use our weather pages